Eastsound, WA

5:51 PM PDT on October 19, 2017 (GMT -0700)
Orcas Island

Weather History for KORS - January, 2014

Change the Weather History Date:

Saturday, January 25, 2014

  Actual Average (KFHR) Record (KFHR)
Temperature  
Mean Temperature 37 °F -  
Max Temperature 41 °F 44 °F 55 °F (2015)
Min Temperature 33 °F 36 °F 23 °F (1997)
Degree Days  
Heating Degree Days 28    
Moisture  
Dew Point 37 °F    
Average Humidity 100    
Maximum Humidity 100    
Minimum Humidity 100    
Precipitation  
Precipitation 0.00 in - - ()
Sea Level Pressure  
Sea Level Pressure 30.32 in    
Wind  
Wind Speed 0 mph (NW)    
Max Wind Speed 6 mph    
Max Gust Speed -    
Visibility 1 miles    
Events Fog    
Averages and records for this station are not official NWS values.
T = Trace of Precipitation, MM = Missing Value Source: NWS Daily Summary

Daily Weather History Graph

Daily Weather History Graph

Search for Another Location

Airport or City:

Trip Planner

Search our weather history database for the weather conditions in past years. The results will help you decide how hot, cold, wet, or windy it might be!

Date:

Astronomy

Jan. 25, 2014 Rise Set
Actual Time 7:49 AM PST 4:58 PM PST
Civil Twilight 7:15 AM PST 5:33 PM PST
Nautical Twilight 6:36 AM PST 6:11 PM PST
Astronomical Twilight 5:59 AM PST 6:48 PM PST
Moon 2:26 AM PST (1/25) 12:03 PM PST (1/25)
Length of Visible Light 10h 18m
Length of Day
9h 08m
Waning Crescent, 33% of the Moon is Illuminated
Jan 25
Waning Crescent
Jan 30
New
Feb 6
First Quarter
Feb 14
Full
Feb 22
Last Quarter

Hourly Weather History & Observations

Time (PST) Temp. Windchill Dew Point Humidity Pressure Visibility Wind Dir Wind Speed Gust Speed Precip Events Conditions
12:15 AM 37.4 °F - 37.4 °F 100% 30.32 in 3.0 mi Calm Calm - N/A   Clear
12:35 AM 37.4 °F - 37.4 °F 100% 30.31 in 3.0 mi Calm Calm - N/A   Clear
12:55 AM 35.6 °F - 35.6 °F 100% 30.32 in 1.0 mi Calm Calm - N/A   Clear
1:15 AM 37.4 °F - 37.4 °F 100% 30.32 in 4.0 mi Calm Calm - N/A   Clear
1:35 AM 35.6 °F - 35.6 °F 100% 30.32 in 3.0 mi Calm Calm - N/A   Clear
1:55 AM 35.6 °F - 35.6 °F 100% 30.31 in 1.2 mi Calm Calm - N/A   Clear
2:15 AM 35.6 °F - 35.6 °F 100% 30.32 in 3.0 mi Calm Calm - N/A   Clear
2:35 AM 35.6 °F - 35.6 °F 100% 30.32 in 8.0 mi Calm Calm - N/A   Clear
2:55 AM 35.6 °F - 35.6 °F 100% 30.31 in 3.0 mi Calm Calm - N/A   Clear
3:15 AM 35.6 °F - 35.6 °F 100% 30.31 in 1.5 mi Calm Calm - N/A   Clear
3:35 AM 35.6 °F - 35.6 °F 100% 30.31 in 0.8 mi Calm Calm - N/A   Mist
3:55 AM 35.6 °F - 35.6 °F 100% 30.31 in 0.5 mi Calm Calm - N/A Fog Fog
4:15 AM 35.6 °F - 35.6 °F 100% 30.32 in 1.2 mi Calm Calm - N/A   Clear
4:35 AM 35.6 °F - 35.6 °F 100% 30.32 in 0.8 mi Calm Calm - N/A   Mostly Cloudy
4:55 AM 35.6 °F - 35.6 °F 100% 30.33 in 2.0 mi Calm Calm - N/A   Overcast
5:10 AM 35.6 °F - 35.6 °F 100% 30.33 in 5.0 mi Calm Calm - N/A   Mostly Cloudy
5:35 AM 35.6 °F - 35.6 °F 100% 30.33 in 1.0 mi Calm Calm - N/A   Mostly Cloudy
5:55 AM 35.6 °F - 35.6 °F 100% 30.32 in 0.5 mi Calm Calm - N/A Fog Fog
6:15 AM 33.8 °F - 33.8 °F 100% 30.32 in 0.2 mi Calm Calm - N/A Fog Fog
6:35 AM 35.6 °F - 35.6 °F 100% 30.32 in 1.0 mi Calm Calm - N/A   Mostly Cloudy
6:55 AM 35.6 °F - 35.6 °F 100% 30.33 in 0.5 mi Calm Calm - N/A Fog Fog
7:15 AM 37.4 °F - 37.4 °F 100% 30.33 in 0.2 mi Calm Calm - N/A Fog Fog
7:35 AM 37.4 °F 33.8 °F 37.4 °F 100% 30.34 in 0.5 mi South 4.6 mph - N/A Fog Fog
7:55 AM 37.4 °F - 37.4 °F 100% 30.35 in 0.2 mi Calm Calm - N/A Fog Fog
8:15 AM 39.2 °F - 39.2 °F 100% 30.34 in 0.2 mi North - - N/A Fog Fog
8:35 AM 37.4 °F 34.9 °F 37.4 °F 100% 30.35 in 0.2 mi South 3.5 mph - N/A Fog Fog
8:55 AM 37.4 °F 34.9 °F 37.4 °F 100% 30.36 in 0.2 mi South 3.5 mph - N/A Fog Fog
9:15 AM 37.4 °F - 37.4 °F 100% 30.36 in 0.2 mi Calm Calm - N/A Fog Fog
9:35 AM 37.4 °F - 37.4 °F 100% 30.36 in 0.2 mi Calm Calm - N/A Fog Fog
9:55 AM 39.2 °F - 39.2 °F 100% 30.37 in 0.2 mi Calm Calm - N/A Fog Fog
10:15 AM 39.2 °F - 39.2 °F 100% 30.37 in 0.2 mi Calm Calm - N/A Fog Fog
10:35 AM 39.2 °F - 39.2 °F 100% 30.37 in 0.2 mi Calm Calm - N/A Fog Fog
10:55 AM 39.2 °F - 39.2 °F 100% 30.37 in 0.5 mi Calm Calm - N/A Fog Fog
11:15 AM 39.2 °F - 39.2 °F 100% 30.37 in 1.0 mi Calm Calm - N/A   Overcast
11:35 AM 39.2 °F - 39.2 °F 100% 30.37 in 0.5 mi Calm Calm - N/A Fog Fog
11:55 AM 39.2 °F - 39.2 °F 100% 30.37 in 0.5 mi Calm Calm - N/A Fog Fog
12:15 PM 39.2 °F - 39.2 °F 100% 30.36 in 0.8 mi Calm Calm - N/A   Overcast
12:35 PM 39.2 °F - 39.2 °F 100% 30.36 in 0.2 mi Calm Calm - N/A Fog Fog
12:55 PM 41.0 °F 39.0 °F 41.0 °F 100% 30.35 in 0.8 mi North 3.5 mph - N/A   Overcast
1:15 PM 41.0 °F - 41.0 °F 100% 30.35 in 0.5 mi Calm Calm - N/A Fog Fog
1:35 PM 41.0 °F - 41.0 °F 100% 30.34 in 0.2 mi Calm Calm - N/A Fog Fog
1:55 PM 39.2 °F - 39.2 °F 100% 30.34 in 0.2 mi Calm Calm - N/A Fog Fog
2:15 PM 39.2 °F - 39.2 °F 100% 30.34 in 0.2 mi Calm Calm - N/A Fog Fog
2:35 PM 39.2 °F - 39.2 °F 100% 30.33 in 0.2 mi Calm Calm - N/A Fog Fog
3:00 PM 39.2 °F - 39.2 °F 100% 30.33 in 0.2 mi Calm Calm - N/A Fog Fog
3:15 PM 41.0 °F - 41.0 °F 100% 30.33 in 1.2 mi Calm Calm - N/A   Overcast
3:35 PM 39.2 °F - 39.2 °F 100% 30.32 in 0.2 mi North - - N/A Fog Fog
3:55 PM 39.2 °F - 39.2 °F 100% 30.32 in 0.2 mi Calm Calm - N/A Fog Fog
4:15 PM 39.2 °F - 39.2 °F 100% 30.32 in 0.5 mi Calm Calm - N/A Fog Fog
4:35 PM 39.2 °F - 39.2 °F 100% 30.31 in 0.2 mi Calm Calm - N/A Fog Fog
4:55 PM 39.2 °F - 39.2 °F 100% 30.31 in 0.2 mi Calm Calm - N/A Fog Fog
5:15 PM 37.4 °F - 37.4 °F 100% 30.30 in 0.2 mi Calm Calm - N/A Fog Fog
5:35 PM 37.4 °F - 37.4 °F 100% 30.30 in 0.2 mi Calm Calm - N/A Fog Fog
5:55 PM 37.4 °F - 37.4 °F 100% 30.30 in 0.2 mi Calm Calm - N/A Fog Fog
6:15 PM 35.6 °F - 35.6 °F 100% 30.29 in 0.2 mi Calm Calm - N/A Fog Fog
6:35 PM 35.6 °F - 35.6 °F 100% 30.30 in 0.2 mi Calm Calm - N/A Fog Fog
6:55 PM 33.8 °F - 33.8 °F 100% 30.30 in 0.2 mi Calm Calm - N/A Fog Fog
7:15 PM 33.8 °F - 33.8 °F 100% 30.29 in 0.5 mi Calm Calm - N/A Fog Fog
7:35 PM 33.8 °F - 33.8 °F 100% 30.29 in 0.5 mi Calm Calm - N/A Fog Fog
7:55 PM 33.8 °F - 33.8 °F 100% 30.29 in 0.5 mi Calm Calm - N/A Fog Fog
8:15 PM 35.6 °F - 35.6 °F 100% 30.29 in 0.2 mi Calm Calm - N/A Fog Fog
8:35 PM 35.6 °F - 35.6 °F 100% 30.30 in 0.2 mi Calm Calm - N/A Fog Fog
8:55 PM 37.4 °F - 37.4 °F 100% 30.29 in 0.2 mi Calm Calm - N/A Fog Fog
9:15 PM 37.4 °F - 37.4 °F 100% 30.28 in 0.2 mi Calm Calm - N/A Fog Fog
9:35 PM 37.4 °F - 37.4 °F 100% 30.28 in 0.2 mi Calm Calm - N/A   Overcast
9:55 PM 37.4 °F - 37.4 °F 100% 30.29 in 0.2 mi Calm Calm - N/A Fog Fog
10:15 PM 37.4 °F - 37.4 °F 100% 30.29 in 0.2 mi Calm Calm - N/A Fog Fog
10:35 PM 37.4 °F 34.9 °F 37.4 °F 100% 30.30 in 0.2 mi NNW 3.5 mph - N/A Fog Fog
10:55 PM 37.4 °F 34.9 °F 37.4 °F 100% 30.30 in 0.5 mi NNW 3.5 mph - N/A Fog Fog
11:15 PM 37.4 °F - 37.4 °F 100% 30.29 in 0.5 mi Calm Calm - N/A Fog Fog
11:35 PM 37.4 °F 32.8 °F 37.4 °F 100% 30.29 in 0.5 mi North 5.8 mph - N/A Fog Fog
11:55 PM 37.4 °F - 37.4 °F 100% 30.28 in 0.2 mi Calm Calm - N/A Fog Fog